Location: Unspecified
(0.0000°N, 0.0000°E)
Time: 20:16:40
(UTC+00:00)

Courier 1B - All Passes

Search period start: 11 April 2026 00:00
Search period end: 21 April 2026 00:00
Orbit: 962 x 1209 km, 28.3° (Epoch: 11 April)

Date Brightness Start Highest point End Pass type
(mag) Time Alt. Az. Time Alt. Az. Time Alt. Az.
11 Apr - 04:30:15 10° NNW 04:36:25 27° NNE 04:42:46 10° E visible
11 Apr - 06:23:13 10° WNW 06:30:58 84° NNE 06:38:53 10° ESE daylight
11 Apr - 08:18:43 10° W 08:25:33 32° SSW 08:32:20 10° SSE daylight
11 Apr - 10:19:13 10° SSW 10:20:57 11° SSW 10:22:39 10° S daylight
11 Apr - 16:05:13 10° SSW 16:10:02 20° SSE 16:14:41 10° ESE daylight
11 Apr - 17:57:46 10° SW 18:04:23 70° SSE 18:10:50 10° ENE daylight
11 Apr - 19:52:48 10° W 19:58:26 31° NNW 20:04:06 10° NNE visible
12 Apr - 03:37:03 10° NNW 03:42:10 20° NNE 03:47:27 10° ENE visible
12 Apr - 05:29:20 10° NW 05:36:51 62° NNE 05:44:37 10° ESE visible
12 Apr - 07:24:01 10° W 07:31:20 43° SSW 07:38:43 10° SE daylight
12 Apr - 09:22:26 10° SW 09:26:27 15° SSW 09:30:28 10° S daylight
12 Apr - 15:12:04 10° SSW 15:15:51 15° SSE 15:19:32 10° SE daylight
12 Apr - 17:04:00 10° SW 17:10:31 49° SSE 17:16:46 10° ENE daylight
12 Apr - 18:58:20 10° W 19:04:32 44° NNW 19:10:38 10° NE visible
12 Apr - 20:56:29 10° NW 20:59:04 12° NNW 21:01:41 10° N visible
13 Apr - 02:44:14 10° N 02:47:53 14° NNE 02:51:38 10° NE visible
13 Apr - 04:35:39 10° NW 04:42:44 45° NNE 04:50:07 10° E visible
13 Apr - 06:29:37 10° WNW 06:37:09 58° SSW 06:44:53 10° SE daylight
13 Apr - 08:26:43 10° WSW 08:32:03 19° SSW 08:37:24 10° SSE daylight
13 Apr - 14:19:21 10° S 14:21:33 11° SSE 14:23:41 10° SE daylight
13 Apr - 16:10:19 10° SW 16:16:34 36° SSE 16:22:30 10° E daylight
13 Apr - 18:04:04 10° WSW 18:10:40 63° NNW 18:17:03 10° NE daylight
13 Apr - 20:00:50 10° WNW 20:04:57 17° NNW 20:09:03 10° NNE visible
14 Apr - 03:42:10 10° NNW 03:48:36 33° NNE 03:55:21 10° E visible
14 Apr - 05:35:27 10° WNW 05:43:01 78° SSW 05:50:54 10° SE visible
14 Apr - 07:31:30 10° W 07:37:43 26° SSW 07:44:01 10° SSE daylight
14 Apr - 15:16:44 10° SSW 15:22:31 26° SSE 15:28:01 10° E daylight
14 Apr - 17:09:57 10° WSW 17:16:48 89° NW 17:23:20 10° ENE daylight
14 Apr - 19:05:46 10° W 19:10:55 24° NNW 19:16:01 10° NNE visible
15 Apr - 02:48:53 10° NNW 02:54:28 24° NNE 03:00:18 10° E visible
15 Apr - 04:41:31 10° NW 04:48:55 79° NNE 04:56:44 10° ESE visible
15 Apr - 06:36:40 10° W 06:43:27 34° SSW 06:50:26 10° SE daylight
15 Apr - 08:36:10 10° SW 08:38:52 12° SSW 08:41:34 10° S daylight
15 Apr - 14:23:16 10° SSW 14:28:21 20° SSE 14:33:13 10° ESE daylight
15 Apr - 16:15:58 10° SW 16:22:54 66° SSE 16:29:27 10° ENE daylight
15 Apr - 18:11:00 10° W 18:16:58 34° NNW 18:22:45 10° NE visible
16 Apr - 01:55:55 10° NNW 02:00:18 17° NNE 02:04:50 10° ENE visible
16 Apr - 03:47:47 10° NW 03:54:51 57° NNE 04:02:22 10° ESE visible
16 Apr - 05:42:08 10° W 05:49:15 45° SSW 05:56:41 10° SE daylight
16 Apr - 07:40:01 10° SW 07:44:23 16° SSW 07:48:47 10° SSE daylight
16 Apr - 13:30:00 10° SSW 13:34:05 15° SSE 13:38:02 10° SE daylight
16 Apr - 15:22:06 10° SW 15:28:57 47° SSE 15:35:23 10° ENE daylight
16 Apr - 17:16:29 10° WSW 17:23:03 48° NNW 17:29:20 10° NE daylight
16 Apr - 19:14:28 10° NW 19:17:31 13° NNW 19:20:32 10° N visible
17 Apr - 01:03:30 10° N 01:06:04 12° NNE 01:08:40 10° NE night (unlit)
17 Apr - 02:54:14 10° NW 03:00:48 41° NNE 03:07:47 10° E visible
17 Apr - 04:47:53 10° WNW 04:55:07 61° SSW 05:02:47 10° SE visible
17 Apr - 06:44:33 10° WSW 06:49:59 20° SSW 06:55:31 10° SSE daylight
17 Apr - 12:37:04 10° S 12:39:41 12° SSE 12:42:15 10° SE daylight
17 Apr - 14:28:20 10° SW 14:34:55 35° SSE 14:41:06 10° E daylight
17 Apr - 16:22:08 10° WSW 16:29:09 69° NNW 16:35:46 10° NE daylight
17 Apr - 18:18:51 10° WNW 18:23:24 19° NNW 18:27:52 10° NNE visible
18 Apr - 02:00:53 10° NNW 02:06:46 29° NNE 02:12:58 10° E visible
18 Apr - 03:53:52 10° WNW 04:01:03 83° SSW 04:08:43 10° ESE visible
18 Apr - 05:49:33 10° W 05:55:40 27° SSW 06:02:00 10° SSE daylight
18 Apr - 13:34:41 10° SSW 13:40:46 26° SSE 13:46:32 10° E daylight
18 Apr - 15:27:58 10° WSW 15:35:14 86° SSE 15:42:01 10° ENE daylight
18 Apr - 17:23:45 10° W 17:29:23 27° NNW 17:34:49 10° NNE daylight
19 Apr - 01:07:45 10° NNW 01:12:42 21° NNE 01:17:50 10° ENE night (unlit)
19 Apr - 03:00:03 10° NW 03:07:02 73° NNE 03:14:30 10° ESE visible
19 Apr - 04:54:53 10° W 05:01:27 35° SSW 05:08:21 10° SE visible
19 Apr - 06:53:51 10° SW 06:56:47 12° SSW 06:59:46 10° S daylight
19 Apr - 12:41:10 10° SSW 12:46:30 20° SSE 12:51:40 10° ESE daylight
19 Apr - 14:33:56 10° SW 14:41:15 63° SSE 14:48:05 10° ENE daylight
19 Apr - 16:28:56 10° W 16:35:25 38° NNW 16:41:33 10° NE daylight
19 Apr - 18:28:48 10° NNW 18:30:05 11° NNW 18:31:23 10° N visible
20 Apr - 00:14:58 10° N 00:18:34 15° NNE 00:22:15 10° ENE night (unlit)
20 Apr - 02:06:26 10° NW 02:13:03 52° NNE 02:20:07 10° ESE visible
20 Apr - 04:00:31 10° W 04:07:18 47° SSW 04:14:32 10° SE visible
20 Apr - 05:58:00 10° WSW 06:02:20 16° SSW 06:06:47 10° SSE daylight
20 Apr - 11:47:50 10° SSW 11:52:09 16° SSE 11:56:22 10° SE daylight
20 Apr - 13:40:01 10° SW 13:47:12 46° SSE 13:53:57 10° E daylight
20 Apr - 15:34:23 10° WSW 15:41:27 53° NNW 15:48:05 10° NE daylight
20 Apr - 17:32:07 10° WNW 17:35:54 15° NNW 17:39:36 10° N daylight
20 Apr - 23:23:28 10° NNE 23:24:22 10° NNE 23:25:17 10° NNE night (unlit)
